| time (UTC) | temp C | wind direction | speed KPH | gust KPH | rain 1hr cm | rain 24hr cm | rain mn cm | humidity % | barometer mb |
| 20260508033032 | 9 | 0 | 0.0 | 6.4 | 0.00 | 2.49 | 0.00 | 97 | 1002.1 |
| 20260508031533 | 9 | 276 | 0.0 | 6.4 | 0.00 | 2.49 | 0.00 | 96 | 1002.0 |
| 20260508030043 | 9 | 275 | 3.2 | 12.9 | 0.00 | 2.49 | 0.00 | 97 | 1002.3 |
| 20260508024543 | 9 | 302 | 0.0 | 4.8 | 0.00 | 2.49 | 2.49 | 97 | 1001.9 |
| 20260508023036 | 9 | 0 | 0.0 | 0.0 | 0.00 | 2.49 | 2.49 | 97 | 1001.8 |
| 20260508021532 | 9 | 0 | 0.0 | 4.8 | 0.00 | 2.49 | 2.49 | 96 | 1001.8 |
| 20260508020031 | 9 | 234 | 0.0 | 6.4 | 0.00 | 2.49 | 2.49 | 96 | 1001.8 |
| 20260508014538 | 9 | 202 | 0.0 | 8.0 | 0.00 | 2.49 | 2.49 | 96 | 1002.0 |
| 20260508013037 | 10 | 179 | 1.6 | 8.0 | 0.00 | 2.49 | 2.49 | 96 | 1001.8 |
| 20260508011542 | 10 | 203 | 3.2 | 9.7 | 0.00 | 2.49 | 2.49 | 96 | 1001.6 |
| 20260508010035 | 10 | 213 | 4.8 | 17.7 | 0.00 | 2.49 | 2.49 | 96 | 1002.0 |
| 20260508004532 | 10 | 198 | 3.2 | 9.7 | 0.00 | 2.49 | 2.49 | 96 | 1002.0 |
| 20260508003038 | 10 | 209 | 3.2 | 8.0 | 0.00 | 2.49 | 2.49 | 96 | 1001.9 |
| 20260508001536 | 10 | 204 | 3.2 | 11.3 | 0.00 | 2.49 | 2.49 | 96 | 1002.1 |
| 20260508000035 | 10 | 176 | 6.4 | 12.9 | 0.00 | 2.49 | 2.49 | 96 | 1002.5 |
| 20260507234534 | 10 | 213 | 3.2 | 8.0 | 0.00 | 2.49 | 2.49 | 96 | 1002.3 |
| 20260507233037 | 10 | 159 | 6.4 | 9.7 | 0.00 | 2.49 | 2.49 | 95 | 1002.4 |
| 20260507231546 | 10 | 219 | 3.2 | 16.1 | 0.00 | 2.49 | 2.49 | 95 | 1002.5 |
| 20260507230032 | 10 | 190 | 3.2 | 11.3 | 0.00 | 2.49 | 2.49 | 95 | 1002.5 |
| 20260507224537 | 10 | 199 | 4.8 | 11.3 | 0.00 | 2.49 | 2.49 | 95 | 1002.5 |
| 20260507223038 | 10 | 190 | 4.8 | 12.9 | 0.00 | 2.49 | 2.49 | 95 | 1002.4 |
| 20260507221537 | 10 | 216 | 8.0 | 24.1 | 0.00 | 2.49 | 2.49 | 94 | 1003.0 |
| 20260507220034 | 10 | 292 | 6.4 | 16.1 | 0.00 | 2.49 | 2.49 | 95 | 1002.7 |
| 20260507214532 | 10 | 197 | 3.2 | 16.1 | 0.05 | 2.49 | 2.49 | 94 | 1002.7 |
| 20260507213040 | 10 | 209 | 9.7 | 29.0 | 0.15 | 2.49 | 2.49 | 94 | 1002.7 |
| 20260507211534 | 10 | 178 | 11.3 | 24.1 | 0.30 | 2.49 | 2.49 | 94 | 1001.9 |
| 20260507210034 | 10 | 124 | 8.0 | 22.5 | 0.53 | 2.49 | 2.49 | 94 | 1002.3 |
| 20260507204540 | 10 | 140 | 8.0 | 17.7 | 0.74 | 2.44 | 2.44 | 94 | 1002.9 |
| 20260507203041 | 10 | 169 | 6.4 | 19.3 | 0.99 | 2.34 | 2.34 | 94 | 1003.8 |
| 20260507201538 | 11 | 167 | 6.4 | 17.7 | 1.17 | 2.16 | 2.16 | 94 | 1003.9 |
| 20260507200045 | 11 | 175 | 6.4 | 19.3 | 1.14 | 1.96 | 1.96 | 94 | 1004.5 |
| 20260507194537 | 11 | 209 | 1.6 | 9.7 | 1.09 | 1.70 | 1.70 | 94 | 1004.9 |
| 20260507193034 | 11 | 216 | 9.7 | 25.7 | 1.02 | 1.32 | 1.32 | 94 | 1004.8 |
| 20260507191535 | 11 | 166 | 12.9 | 25.7 | 0.74 | 0.99 | 0.99 | 94 | 1004.6 |
| 20260507190033 | 11 | 158 | 19.3 | 33.8 | 0.58 | 0.81 | 0.81 | 93 | 1004.9 |
| 20260507184539 | 11 | 165 | 17.7 | 33.8 | 0.38 | 0.61 | 0.61 | 93 | 1004.9 |
| 20260507183043 | 11 | 186 | 20.9 | 41.8 | 0.10 | 0.33 | 0.33 | 92 | 1005.3 |
| 20260507181538 | 12 | 169 | 22.5 | 35.4 | 0.00 | 0.23 | 0.23 | 90 | 1005.0 |
| 20260507180041 | 12 | 179 | 27.4 | 46.7 | 0.00 | 0.23 | 0.23 | 89 | 1004.8 |
| 20260507174536 | 12 | 182 | 25.7 | 45.1 | 0.00 | 0.23 | 0.23 | 88 | 1005.1 |
| 20260507173041 | 13 | 166 | 20.9 | 46.7 | 0.00 | 0.23 | 0.23 | 89 | 1005.3 |
| 20260507171557 | 13 | 171 | 20.9 | 41.8 | 0.00 | 0.23 | 0.23 | 88 | 1005.7 |
| 20260507170035 | 12 | 163 | 14.5 | 33.8 | 0.00 | 0.23 | 0.23 | 88 | 1006.0 |
| 20260507164550 | 13 | 163 | 19.3 | 43.5 | 0.00 | 0.23 | 0.23 | 88 | 1006.3 |
| 20260507163035 | 13 | 165 | 17.7 | 46.7 | 0.00 | 0.23 | 0.23 | 88 | 1006.5 |
| 20260507161544 | 13 | 194 | 19.3 | 41.8 | 0.00 | 0.23 | 0.23 | 88 | 1007.2 |
| 20260507160040 | 13 | 133 | 24.1 | 51.5 | 0.00 | 0.23 | 0.23 | 88 | 1007.2 |
| 20260507154536 | 13 | 179 | 27.4 | 51.5 | 0.00 | 0.23 | 0.23 | 88 | 1007.5 |
| 20260507153044 | 13 | 194 | 27.4 | 51.5 | 0.00 | 0.23 | 0.23 | 89 | 1008.0 |
| 20260507151541 | 13 | 182 | 27.4 | 49.9 | 0.00 | 0.23 | 0.23 | 88 | 1008.5 |
| 20260507150036 | 13 | 171 | 24.1 | 40.2 | 0.00 | 0.23 | 0.23 | 88 | 1008.4 |
| 20260507144534 | 13 | 206 | 25.7 | 46.7 | 0.00 | 0.23 | 0.23 | 88 | 1008.9 |
| 20260507143032 | 13 | 166 | 22.5 | 49.9 | 0.00 | 0.23 | 0.23 | 90 | 1009.3 |
| 20260507141537 | 13 | 200 | 20.9 | 45.1 | 0.00 | 0.23 | 0.23 | 89 | 1009.7 |
| 20260507140037 | 13 | 188 | 24.1 | 43.5 | 0.00 | 0.23 | 0.23 | 89 | 1010.0 |
| 20260507134545 | 13 | 180 | 12.9 | 57.9 | 0.00 | 0.23 | 0.23 | 90 | 1010.1 |
| 20260507133032 | 12 | 169 | 19.3 | 40.2 | 0.00 | 0.23 | 0.23 | 90 | 1010.3 |
| 20260507131537 | 12 | 173 | 16.1 | 35.4 | 0.00 | 0.23 | 0.23 | 90 | 1010.4 |
| 20260507130042 | 13 | 115 | 19.3 | 37.0 | 0.03 | 0.23 | 0.23 | 89 | 1010.1 |
| 20260507124534 | 12 | 182 | 11.3 | 35.4 | 0.03 | 0.23 | 0.23 | 91 | 1009.9 |
| 20260507123037 | 12 | 166 | 22.5 | 46.7 | 0.03 | 0.23 | 0.23 | 92 | 1010.3 |
| 20260507121535 | 12 | 171 | 22.5 | 45.1 | 0.03 | 0.23 | 0.23 | 92 | 1011.0 |
| 20260507120040 | 12 | 141 | 20.9 | 37.0 | 0.00 | 0.20 | 0.20 | 92 | 1011.5 |
| 20260507114537 | 12 | 197 | 16.1 | 35.4 | 0.00 | 0.20 | 0.20 | 92 | 1012.1 |
| 20260507113038 | 12 | 157 | 12.9 | 27.4 | 0.00 | 0.20 | 0.20 | 93 | 1012.1 |
| 20260507111534 | 11 | 194 | 16.1 | 27.4 | 0.00 | 0.20 | 0.20 | 93 | 1012.3 |
| 20260507110047 | 11 | 158 | 14.5 | 32.2 | 0.00 | 0.20 | 0.20 | 93 | 1012.0 |
| 20260507104535 | 11 | 162 | 19.3 | 29.0 | 0.00 | 0.20 | 0.20 | 93 | 1012.3 |
| 20260507103041 | 11 | 179 | 14.5 | 22.5 | 0.00 | 0.20 | 0.20 | 93 | 1012.8 |
| 20260507101543 | 11 | 203 | 16.1 | 25.7 | 0.00 | 0.20 | 0.20 | 92 | 1012.8 |
| 20260507100038 | 12 | 149 | 14.5 | 30.6 | 0.00 | 0.20 | 0.20 | 92 | 1012.4 |
| 20260507094537 | 12 | 193 | 12.9 | 29.0 | 0.03 | 0.20 | 0.20 | 93 | 1012.6 |
| 20260507093035 | 12 | 204 | 9.7 | 29.0 | 0.08 | 0.20 | 0.20 | 93 | 1013.1 |
| 20260507091539 | 12 | 209 | 19.3 | 35.4 | 0.10 | 0.20 | 0.20 | 94 | 1012.8 |
| 20260507090038 | 12 | 171 | 9.7 | 38.6 | 0.13 | 0.20 | 0.20 | 95 | 1012.9 |
| 20260507084539 | 11 | 194 | 9.7 | 22.5 | 0.15 | 0.18 | 0.18 | 95 | 1013.0 |
| 20260507083039 | 11 | 173 | 12.9 | 19.3 | 0.13 | 0.13 | 0.13 | 95 | 1013.1 |
| 20260507081536 | 11 | 203 | 6.4 | 16.1 | 0.10 | 0.10 | 0.10 | 95 | 1013.2 |
| 20260507080041 | 11 | 178 | 8.0 | 17.7 | 0.08 | 0.08 | 0.08 | 94 | 1013.2 |
| 20260507074542 | 11 | 190 | 8.0 | 30.6 | 0.03 | 0.03 | 0.03 | 94 | 1013.7 |
| 20260507073036 | 11 | 177 | 11.3 | 22.5 | 0.00 | 0.00 | 0.00 | 94 | 1013.9 |
| 20260507071537 | 11 | 213 | 6.4 | 16.1 | 0.00 | 0.00 | 0.00 | 94 | 1014.1 |
| 20260507070044 | 11 | 140 | 3.2 | 12.9 | 0.00 | 0.00 | 0.00 | 94 | 1014.1 |
| 20260507064537 | 11 | 196 | 4.8 | 16.1 | 0.00 | 0.00 | 0.00 | 94 | 1014.3 |
| 20260507063038 | 11 | 188 | 6.4 | 16.1 | 0.00 | 0.00 | 0.00 | 94 | 1014.4 |
| 20260507061532 | 11 | 170 | 6.4 | 19.3 | 0.00 | 0.00 | 0.00 | 94 | 1014.6 |
| 20260507060041 | 11 | 213 | 4.8 | 12.9 | 0.00 | 0.00 | 0.00 | 94 | 1015.0 |
| 20260507054535 | 11 | 177 | 6.4 | 19.3 | 0.00 | 0.00 | 0.00 | 94 | 1015.0 |
| 20260507053034 | 11 | 181 | 4.8 | 14.5 | 0.00 | 0.00 | 0.00 | 94 | 1015.3 |
| 20260507051540 | 11 | 238 | 6.4 | 17.7 | 0.00 | 0.00 | 0.00 | 94 | 1015.5 |
| 20260507050042 | 11 | 185 | 6.4 | 14.5 | 0.00 | 0.00 | 0.00 | 94 | 1016.1 |
| 20260507044537 | 11 | 223 | 6.4 | 14.5 | 0.00 | 0.00 | 0.00 | 94 | 1016.2 |
| 20260507043033 | 11 | 194 | 6.4 | 17.7 | 0.00 | 0.00 | 0.00 | 94 | 1016.5 |
| 20260507041538 | 11 | 204 | 6.4 | 17.7 | 0.00 | 0.00 | 0.00 | 94 | 1016.7 |
| 20260507040035 | 11 | 194 | 6.4 | 12.9 | 0.00 | 0.00 | 0.00 | 94 | 1017.0 |
| 20260507034550 | 11 | 188 | 6.4 | 16.1 | 0.00 | 0.00 | 0.00 | 94 | 1017.1 |